Hourly Data Report for November 07, 2020

MUSKOKA
ONTARIO
Current Station Operator: NAVCAN

44°58'29.000" N
79°18'12.000" W
281.90 m
6115529
71532
YQA

Download Data

Hourly Data (November 2020)
Hourly Data Report for November 7, 2020
TIME
LST
Temp Definition
°C
Dew Point Definition
°C
Rel Hum Definition
%
Precip. Amount Definition
mm

Wind Dir Definition
10's deg

Wind Spd Definition
km/h
Visibility Definition
km
Stn Press Definition
kPa
Hmdx Definition


Wind Chill Definition


Weather Definition


00:00 2.8 2.4 97 LegendMM 14 4 14.5 98.63     LegendNANA
01:00 3.7 3.4 98 LegendMM 15 5 3.6 98.63     Fog
02:00 2.4 2.2 98 LegendMM   0 4.0 98.66     Fog
03:00 3.4 3.3 99 LegendMM 17 8 4.0 98.64     Fog
04:00 2.4 2.1 98 LegendMM 16 5 4.8 98.65     Fog
05:00 2.8 2.7 99 LegendMM 14 5 1.6 98.67     Fog
06:00 3.3 3.1 99 LegendMM 14 4 2.0 98.66     Fog
07:00 3.4 3.3 99 LegendMM LegendMM 4 4.8 98.69     Fog
08:00 6.4 6.3 99 LegendMM 16 8 12.9 98.70     LegendNANA
09:00 10.8 8.9 88 LegendMM 14 5 16.1 98.71     LegendNANA
10:00 15.8 10.1 69 LegendMM 22 15 16.1 98.72     LegendNANA
11:00 17.7 10.1 61 LegendMM 22 13 16.1 98.74     LegendNANA
12:00 19.4 10.1 54 LegendMM 24 13 16.1 98.69     LegendNANA
13:00 19.9 10.1 53 LegendMM 23 17 16.1 98.65     LegendNANA
14:00 20.3 10.0 51 LegendMM 23 15 16.1 98.63     LegendNANA
15:00 20.2 9.9 51 LegendMM 25 11 16.1 98.64     LegendNANA
16:00 18.7 9.5 55 LegendMM 23 9 16.1 98.69     LegendNANA
17:00 16.4 9.2 62 LegendMM 21 11 16.1 98.68     LegendNANA
18:00 16.0 9.0 63 LegendMM 21 11 16.1 98.72     LegendNANA
19:00 12.8 8.3 74 LegendMM 18 11 16.1 98.73     LegendNANA
20:00 9.9 7.7 86 LegendMM   0 16.1 98.78     LegendNANA
21:00 8.4 7.3 93 LegendMM   0 16.1 98.83     LegendNANA
22:00 5.9 5.1 94 LegendMM LegendMM 4 16.1 98.85     LegendNANA
23:00 6.4 6.0 97 LegendMM 16 5 16.1 98.83     LegendNANA

Notes on Data Quality.

Legend

  • E = Estimated
  • M = Missing
  • NA = Not Available*
  • [empty] = Indicates an unobserved value
Date modified: